Location: NJAA Observatory
(40.6819°N, 74.8979°W)
Time: 12:18:33
(UTC-04:00)

S-56A Canister/Altair - Visible Passes

Search period start: 18 April 2014 00:00
Search period end: 28 April 2014 00:00
Orbit: 632 x 2503 km, 38.9° (Epoch: 14 April)

Date Brightness Start Highest point End Pass type
(mag) Time Alt. Az. Time Alt. Az. Time Alt. Az.
20 Apr 9.6 05:36:07 10° S 05:38:31 14° SE 05:41:06 10° ESE visible
21 Apr 9.7 05:05:24 10° SSE 05:06:33 11° SE 05:07:45 10° SE visible
24 Apr 8.5 05:29:26 10° SW 05:33:17 30° SSE 05:37:32 10° E visible
25 Apr 8.6 04:58:10 13° SSW 05:01:20 25° SSE 05:05:09 10° E visible
26 Apr 8.8 04:27:39 18° S 04:29:21 22° SSE 04:32:49 10° E visible
27 Apr 8.9 03:57:07 19° SSE 03:57:22 19° SSE 04:00:31 10° ESE visible
